Weather Roundup
Issued by NWS Springfield, MO

Home | Current Version | Previous Version | Text Only | Print | Product List | Glossary On
Versions: 1 2 3 4 5 6 7 8 9 10 11 12 13 14 15 16 17 18 19 20 21 22 23 24 25 26 27 28 29 30 31 32 33 34 35 36 37 38 39 40 41 42 43 44 45 46 47 48 49 50
000
NZUS99 KSGF 220107
HRRSGF

HOURLY WEATHER
NATIONAL WEATHER SERVICE SPRINGFIELD MO
700 PM CST SUN DEC 21 2014

......SGF CWA......

CITY           SKY/WX    TMP DP  RH WIND       PRES   REMARKS
SPRINGFIELD    CLOUDY    41  35  79 SE13      29.87F
JOPLIN         CLOUDY    45  38  76 SE9       29.84F
WEST PLAINS    CLOUDY    40  32  73 SE9       29.95F WCI  34
ROLLA          CLOUDY    39  32  76 SE7       29.93F WCI  34
OSAGE BEACH    CLOUDY    43  34  70 SE8       29.92F
BRANSON        CLOUDY    41  36  81 CALM      29.91F

......SURROUNDING SGF CWA......

CITY           SKY/WX    TMP DP  RH WIND       PRES   REMARKS
CHANUTE        CLOUDY    45  41  86 SE13      29.80F
PARSONS        CLOUDY    46  41  82 SE9       29.81F
COFFEYVILLE    CLOUDY    46  40  79 SE14      29.81F
EMPORIA        CLOUDY    42  42 100 S18G25    29.74F FOG
GROVE OK       CLOUDY    46  39  76 SE8       29.86F
ROGERS AR      CLOUDY    43  37  79 SE12      29.87S
SILOAM SPRINGS CLOUDY    45  34  65 SE9       29.87F
HARRISON AR    CLOUDY    43  36  76 SE10      29.90F
NEAR YELLVILLE MOCLDY    45  34  65 E5        29.92F

......KANSAS AND MISSOURI......

CITY           SKY/WX    TMP DP  RH WIND       PRES   REMARKS
KANSAS CTY INT CLOUDY    44  41  89 S15       29.79F
DOWNTOWN KC    CLOUDY    46  40  79 SE9       29.81F
COLUMBIA       CLOUDY    41  36  82 SE14      29.92F
SEDALIA        CLOUDY    44  37  76 SE12      29.88F
ST JOSEPH      LGT RAIN  43  41  93 S13       29.79F FOG
ST LOUIS       CLOUDY    43  31  62 SE14      30.01F
SPIRIT OF STL  CLOUDY    42  31  64 VRB3      29.99F
KIRKSVILLE     LGT RAIN  41  40  96 SE13      29.89S FOG
WICHITA        CLOUDY    45  42  89 S17       29.69F
TOPEKA         CLOUDY    46  42  86 S14       29.76F
OLATHE         CLOUDY    43  42  97 SE13      29.79F

......TENNESSEE......

CITY           SKY/WX    TMP DP  RH WIND       PRES   REMARKS
MEMPHIS        PTCLDY    47  32  56 E3        30.00F
NASHVILLE      MOCLDY    49  38  65 CALM      30.07F

......ARKANSAS.......

CITY           SKY/WX    TMP DP  RH WIND       PRES   REMARKS
FAYETTEVILLE   CLOUDY    44  38  79 SE5       29.87S
FT SMITH       CLOUDY    48  39  71 E6        29.89S
LITTLE ROCK    PTCLDY    48  37  65 E3        29.96S

......OKLAHOMA.......

CITY           SKY/WX    TMP DP  RH WIND       PRES   REMARKS
TULSA          CLOUDY    48  41  76 S12G21    29.82F
PONCA CITY     CLOUDY    46  43  89 SE17G24   29.74F
MCALESTER      CLOUDY    46  44  93 SE7       29.84F FOG
OKLAHOMA CITY  CLOUDY    47  43  86 SE18      29.72F

......IOWA............

CITY           SKY/WX    TMP DP  RH WIND       PRES   REMARKS
DES MOINES     DRIZZLE   43  38  82 S14       29.80F
QUAD CITIES    CLOUDY    36  31  82 SE14      29.97R WCI  27

......ILLINOIS........

CITY           SKY/WX    TMP DP  RH WIND       PRES   REMARKS
QUINCY         CLOUDY    41  33  73 S14       29.95S
CHICAGO        CLOUDY    35  29  78 S10       30.08S WCI  27



USA.gov is the U.S. government's official web portal to all federal, state and local government web resources and services.